Location: ??????
(55.4348°N, 39.2112°E)
Time: 21:16:56
(UTC+00:00)

Cosmos 1626 - Pass Details

Date: 14 April 2024
Orbit: 408 x 412 km, 82.5° (Epoch: 22 May)

Event Time Altitude Azimuth Distance (km) Brightness Sun altitude
Rises 01:38:18 0° 189° (S) 2,372 5.2 -6.4°
Reaches altitude 10° 01:40:19 10° 188° (S) 1,516 4.2 -6.1°
Maximum altitude 01:43:37 84° 101° (ESE) 438 1.9 -5.7°
Drops below altitude 10° 01:46:59 10° 13° (NNE) 1,544 5.2 -5.3°
Sets 01:49:03 0° 13° (NNE) 2,420 6.2 -5.0°
